Tracking 30922 objects as of 2-Jul-2025
HD Live streaming from Space Station
objects crossing your sky now

NADEZHDA 2

Track NADEZHDA 2 now!
10-day predictions
NADEZHDA 2 is classified as:


NORAD ID: 20508
Int'l Code: 1990-017A
Perigee: 958.5 km
Apogee: 1,022.5 km
Inclination: 83.0 °
Period: 104.8 minutes
Semi major axis: 7361 km
RCS: 2.5733 m2 (large)
Launch date: February 27, 1990
Source: Commonwealth of Independent States (former USSR) (CIS)
Launch site: PLESETSK MISSILE AND SPACE COMPLEX (PKMTR)
Your satellite tracking list
R2
Track 1 satellite(s)




NASA's NSSDC Master Catalog

Two Line Element Set (TLE):
1 20508U 90017A   25182.92979712  .00000054  00000-0  40972-4 0  9991
2 20508  82.9570 332.7714 0043469 338.0244 133.8004 13.74514288772261
Source of the keplerian elements: AFSPC